CW2718 Weather Reports


time (UTC)temp
F
wind
direction
speed
knots
gust
knots
rain 1hr
in
rain 24hr
in
rain mn
in
humidity
%
barometer
mb
20260510162128 74 251 0.0 3.5 0.00 0.16 0.00 56 1011.7
20260510160127 73 191 0.0 4.3 0.00 0.16 0.00 60 1011.6
20260510155127 73 272 0.0 0.9 0.00 0.16 0.00 63 1011.7
20260510154127 72 244 0.0 0.0 0.00 0.16 0.00 64 1011.8
20260510153127 72 267 0.0 0.9 0.00 0.16 0.00 63 1012.0
20260510152127 71 222 0.0 0.0 0.00 0.16 0.00 64 1012.0
20260510151127 69 222 0.0 0.0 0.00 0.16 0.00 70 1011.8
20260510145127 67 300 0.0 0.0 0.00 0.16 0.00 74 1011.9
20260510144126 66 225 0.0 2.6 0.00 0.16 0.00 76 1011.9
20260510143127 64 284 0.0 3.5 0.00 0.16 0.00 79 1011.9
20260510141127 63 193 0.0 0.0 0.00 0.16 0.00 82 1011.9
20260510140127 62 265 0.0 1.7 0.00 0.16 0.00 82 1011.8
20260510135127 63 213 0.0 2.6 0.00 0.16 0.00 81 1011.8
20260510134127 61 153 0.0 0.0 0.00 0.16 0.00 85 1011.7
20260510133127 61 199 0.0 0.0 0.00 0.16 0.00 87 1011.7
20260510132127 58 198 0.0 0.0 0.00 0.16 0.00 92 1011.7
20260510131127 59 198 0.0 0.0 0.00 0.16 0.00 93 1011.7
20260510130127 56 198 0.0 0.0 0.00 0.16 0.00 94 1011.8
20260510125127 57 198 0.0 0.0 0.00 0.16 0.00 95 1012.0
20260510124127 56 139 0.0 0.0 0.00 0.16 0.00 96 1011.8
20260510123126 56 139 0.0 0.0 0.00 0.16 0.00 96 1011.6
20260510122128 55 139 0.0 0.0 0.00 0.16 0.00 97 1011.5
20260510122033 53 135 0.0 0.0 0.00 0.16 0.00 96 1011.4